Probability
0 0 0 0 0 0 0 0 0 0 0 0 0 0 0 0 0 0 0 0 0 0 0 0 0 0 0 0 1 2 3 3 3 2 1 2 2 1 0 0 0 0 0 0
0 0 0 0 0 0 0 0 0 0 0 0 0 0 0 0 0 0 0 0 0 0 0 0 0 0 0 0 0 1 2 3 3 2 1 1 1 2 1 0 0 0 0 0
0 0 0 0 0 0 0 0 0 0 0 0 0 0 0 0 0 0 0 0 0 0 0 0 0 0 0 0 0 0 1 1 2 2 1 0 1 2 2 1 0 0 0 0
0 0 0 0 0 0 0 0 0 0 0 0 0 0 0 0 0 0 0 0 0 0 0 0 0 0 0 0 0 0 0 0 1 1 0 0 0 1 1 1 0 0 0 0
0 0 0 0 0 0 0 0 0 0 0 0 0 0 0 0 0 0 0 0 0 0 0 0 0 0 0 0 0 0 0 0 0 0 0 0 0 0 0 0 0 0 0 0
0 0 0 0 0 0 0 0 0 0 0 0 0 0 0 0 0 0 0 0 0 0 0 0 0 0 0 0 0 0 0 0 0 0 0 0 0 0 0 0 0 0 0 0
0 0 0 0 0 0 0 0 0 0 0 0 0 0 0 0 0 0 0 0 0 0 0 0 0 0 0 0 0 0 0 0 0 0 0 0 0 0 0 0 0 0 0 0
0 0 0 0 0 0 0 0 0 0 0 0 0 0 0 0 0 0 0 0 0 0 0 0 0 0 0 0 0 0 0 0 0 0 0 0 0 0 0 0 0 0 0 0
0 0 0 0 0 0 0 0 0 0 0 0 0 0 0 0 0 0 0 0 0 0 0 0 0 0 0 0 0 0 0 0 0 0 0 0 0 0 0 0 0 0 0 0
0 0 0 0 0 0 0 0 0 0 0 0 0 0 0 0 0 0 0 0 0 0 0 0 0 0 0 0 0 0 0 0 0 0 0 0 0 0 0 0 0 0 0 0
0 0 0 0 0 0 0 0 0 0 0 0 0 0 0 0 0 0 0 0 0 0 0 0 0 0 0 0 0 0 0 0 0 0 0 0 0 0 0 0 0 0 0 0
0 0 0 0 0 0 0 0 0 0 0 0 0 0 0 0 0 0 0 0 0 0 0 0 0 0 0 0 0 0 0 0 0 0 0 0 0 0 0 0 0 0 0 0
0 0 0 0 0 0 0 0 0 0 0 0 0 0 0 0 0 0 0 0 0 0 0 0 0 0 0 0 0 0 0 0 0 0 0 0 0 0 0 0 0 0 0 0
0 0 0 0 0 0 0 0 0 0 0 0 0 0 0 0 0 0 0 0 0 0 0 0 0 0 0 0 0 0 0 0 0 0 0 0 0 0 0 0 0 0 0 0
0 0 0 0 0 0 0 0 0 0 0 0 0 0 0 0 0 0 0 0 0 0 0 0 0 0 0 0 0 0 0 0 0 0 0 0 0 0 0 0 0 0 0 0
0 0 0 0 0 0 0 0 0 0 0 0 0 0 0 0 0 0 0 0 0 0 0 0 0 0 0 0 0 0 0 0 0 0 0 0 0 0 0 0 0 0 0 0
0 0 0 0 0 0 0 0 0 0 0 0 0 0 0 0 0 0 0 0 0 0 0 0 0 0 0 0 0 0 0 0 0 0 0 0 0 0 0 0 0 0 0 0
0 0 0 0 0 0 0 0 0 0 0 0 0 0 0 0 0 0 0 0 0 0 0 0 0 0 0 0 0 0 0 0 0 0 0 0 0 0 0 0 0 0 0 0
0 0 0 0 0 0 0 0 0 0 0 0 0 0 0 0 0 0 0 0 0 0 0 0 0 0 0 0 0 0 0 0 0 0 0 0 0 0 0 0 0 0 0 0
0 0 0 0 0 0 0 0 0 0 0 0 0 0 0 0 0 0 0 0 0 0 0 0 0 0 0 0 0 0 0 0 0 0 0 0 0 0 0 0 0 0 0 0
0 0 0 0 0 0 0 0 0 0 0 0 0 0 0 0 0 0 0 0 0 0 0 0 0 0 0 0 0 0 0 0 0 0 0 0 0 0 0 0 0 0 0 0
0 0 0 0 0 0 0 0 0 0 0 0 0 0 0 0 0 0 0 0 0 0 0 0 0 0 0 0 0 0 0 0 0 0 0 0 0 0 0 0 0 0 0 0
0 0 0 0 0 0 0 0 0 0 0 0 0 0 0 0 0 0 0 0 0 0 0 0 0 0 0 0 0 0 0 0 0 0 0 0 0 0 0 0 0 0 0 0
0 0 0 0 0 0 0 0 0 0 0 0 0 0 0 0 0 0 0 0 0 0 0 0 0 0 0 0 0 0 0 0 0 0 0 0 0 0 0 0 0 0 0 0
0 0 0 0 0 0 0 0 0 0 0 0 0 0 0 0 0 0 0 0 0 0 0 0 0 0 0 0 0 0 0 0 0 0 0 0 0 0 0 0 0 0 0 0
0 0 0 0 0 0 0 0 0 0 0 0 0 0 0 0 0 0 0 0 0 0 0 0 0 0 0 0 0 0 0 0 0 0 0 0 0 0 0 0 0 0 0 0
Wind_Speed
3 1 2 3 5 5 5 5 7 5 1 4 7 9 7 3 4 4 3 3 2 2 1 1 2 2 2 2 1 1 1 1 1 0 0 0 1 1 1 0 1 1 1 0
2 3 3 3 3 5 6 7 6 4 1 3 6 10 8 5 5 4 4 4 2 1 1 1 2 2 1 1 1 1 1 0 0 0 0 1 1 1 1 1 1 1 1 1
3 1 2 3 2 4 5 5 4 5 5 5 6 8 7 5 4 3 2 1 1 1 1 1 1 1 1 1 1 1 1 0 1 1 0 1 1 1 1 1 1 1 2 2
1 1 2 3 3 4 5 3 4 4 3 3 2 5 5 5 5 4 3 1 1 1 1 1 1 0 0 0 0 1 1 0 1 1 0 1 1 1 2 1 1 2 2 2
0 1 2 3 3 4 3 3 4 5 4 4 4 5 6 3 4 5 4 3 1 1 1 1 1 1 1 1 0 0 0 1 0 0 1 1 2 2 1 1 2 2 2 2
1 1 1 2 3 2 2 3 3 3 2 5 7 6 5 3 4 4 4 3 2 1 1 1 1 1 1 1 0 0 0 1 0 0 1 1 2 2 2 2 2 2 1 2
2 2 1 1 2 1 2 1 1 1 3 6 3 4 5 1 1 2 4 4 2 1 1 0 1 1 1 1 0 0 0 1 1 1 1 1 2 2 2 2 2 2 2 2
2 2 2 0 0 1 2 2 2 3 3 2 1 5 2 1 3 3 3 3 2 1 1 1 1 1 1 1 1 1 1 1 1 1 1 1 1 1 1 2 2 2 2 2
2 2 1 1 1 1 2 2 1 1 3 3 5 3 1 1 3 2 2 2 2 0 1 1 1 1 1 1 1 1 1 1 1 1 1 1 1 1 2 2 2 1 2 2
2 3 2 1 1 2 2 1 1 2 2 4 4 4 3 3 2 1 1 1 1 1 0 1 1 1 1 1 1 1 1 1 1 1 1 1 1 1 1 1 2 2 2 2
2 2 2 2 3 3 2 1 2 3 3 3 4 3 1 3 3 3 2 2 2 2 1 0 0 1 1 1 1 1 1 1 1 1 1 1 1 1 2 2 2 2 2 2
1 1 3 3 2 1 2 2 3 2 3 3 3 4 1 2 2 2 1 2 1 2 1 0 0 1 1 1 1 1 1 1 1 1 1 1 1 1 2 2 2 2 2 3
0 1 2 2 1 0 2 2 2 2 2 3 4 5 1 1 1 1 0 1 1 1 1 0 1 1 1 1 1 1 1 1 1 1 1 1 2 2 2 2 2 2 3 3
0 2 4 5 3 2 3 4 4 4 4 5 8 8 4 3 3 3 2 1 1 0 0 0 0 0 1 2 2 2 2 2 2 1 1 2 2 2 2 2 2 2 2 3
0 3 4 7 8 6 7 7 7 8 8 8 8 8 9 5 4 3 1 1 1 1 0 0 0 1 1 1 2 2 2 2 2 2 2 2 2 2 2 2 2 2 2 3
1 3 3 6 7 7 9 10 10 10 10 11 11 13 7 5 3 3 2 2 2 1 1 1 1 1 2 2 2 2 2 2 2 2 2 2 2 1 1 2 2 2 2 3
2 2 2 4 3 5 9 10 11 9 8 8 11 11 5 4 4 3 3 2 2 1 1 1 1 1 2 1 1 1 2 2 2 2 2 2 2 2 2 2 2 2 2 2
4 3 3 3 3 8 7 3 6 8 8 8 8 7 4 4 4 3 2 2 1 1 1 1 1 1 2 1 1 1 1 2 2 2 2 2 1 2 2 2 2 2 2 2
4 4 3 2 5 8 4 2 3 4 6 6 7 7 4 2 3 2 1 0 1 1 1 1 1 1 1 1 1 1 1 2 2 2 2 2 1 2 2 2 2 2 2 2
3 4 4 4 5 6 3 1 1 1 6 3 4 5 3 1 2 4 2 2 2 1 0 0 0 1 1 1 0 0 1 2 2 2 2 1 1 1 1 2 2 2 2 2
4 5 7 7 7 8 3 2 3 3 6 2 3 3 3 3 4 3 2 2 2 1 1 0 0 1 1 0 0 1 1 2 2 2 2 1 1 1 1 2 2 2 2 2
7 6 7 6 7 9 3 4 6 6 1 1 1 2 2 3 2 1 2 2 2 2 1 0 0 1 1 0 0 1 2 2 2 2 1 1 1 1 1 1 2 2 2 2
7 7 5 8 8 4 5 5 4 1 1 1 1 1 1 2 3 2 2 2 2 2 1 0 0 1 1 1 0 1 2 2 1 1 1 1 1 1 1 1 2 2 2 2
5 3 3 6 7 4 4 3 3 2 3 2 1 1 1 3 3 3 3 3 2 1 1 0 0 1 2 1 1 1 2 1 1 1 1 1 1 2 2 1 1 1 2 2
5 4 5 8 7 5 4 5 4 3 3 2 2 2 3 3 4 3 3 3 2 1 1 1 1 2 2 2 1 1 1 1 1 1 1 1 1 1 1 1 1 2 2 2
6 8 8 8 5 4 4 2 3 3 3 3 2 3 3 3 3 3 3 2 2 1 1 1 1 1 2 1 1 1 1 0 0 1 1 1 1 1 1 1 2 3 3 5
Wind_Direction
175 197 218 226 234 262 286 280 273 277 249 259 256 266 263 231 223 222 223 220 216 212 161 117 110 103 104 94 90 104 90 10 26 77 305 308 309 315 310 286 272 258 256 243
195 239 270 289 286 274 275 279 282 301 304 271 271 269 262 232 229 220 221 218 210 200 147 140 115 101 104 103 82 58 22 333 125 112 265 272 263 259 256 274 280 239 239 249
210 298 306 276 281 278 265 260 277 295 309 267 276 276 243 223 203 194 204 198 159 139 161 133 110 111 101 78 66 32 345 308 130 92 77 322 320 291 313 298 289 259 238 237
235 270 282 270 270 269 267 287 288 285 289 275 240 281 251 212 201 199 197 192 178 159 173 147 127 28 72 84 65 29 319 312 113 96 152 243 259 272 272 273 269 271 247 228
290 336 290 270 285 283 291 317 281 264 262 280 242 253 268 202 217 211 196 189 180 152 162 159 163 234 341 45 73 55 316 321 86 143 217 240 260 260 273 288 282 276 272 245
246 262 303 307 313 295 311 299 277 247 243 258 226 221 265 223 220 194 184 181 166 148 150 153 151 115 43 32 145 179 286 313 310 242 244 235 254 269 284 295 288 287 285 269
248 198 169 322 303 285 299 315 316 262 226 244 197 212 246 218 63 144 168 167 148 138 111 64 40 49 33 14 97 136 296 291 294 277 266 253 257 260 258 266 269 289 291 281
263 248 158 174 242 246 247 238 211 248 263 292 236 233 236 121 79 80 117 130 126 111 84 38 41 30 11 357 357 353 298 283 291 279 275 281 272 265 265 272 270 270 277 277
296 278 119 145 327 311 233 228 265 275 280 272 246 233 193 79 85 92 101 118 118 97 40 32 32 26 11 7 345 322 309 291 301 297 298 288 293 294 282 282 293 285 283 291
315 284 249 157 197 252 280 297 123 199 263 267 256 230 224 180 194 182 145 149 166 146 65 9 6 13 15 0 353 344 332 307 298 316 299 301 297 295 297 300 297 293 292 299
290 249 247 191 206 210 182 198 218 238 248 258 280 271 76 165 174 181 199 191 186 167 181 259 312 4 16 16 23 14 351 329 313 304 297 313 312 309 303 290 288 293 297 298
325 259 257 228 173 218 218 203 183 207 253 243 264 276 54 100 130 146 187 190 196 163 159 194 176 47 25 18 5 350 335 312 294 295 308 315 307 299 291 290 295 303 301 297
359 197 285 257 197 213 257 240 220 235 263 247 247 261 126 76 42 48 180 228 211 171 172 110 51 30 4 351 348 340 337 317 292 299 307 310 304 296 290 298 307 309 303 302
322 217 216 236 260 217 246 244 223 214 229 247 239 258 274 301 306 311 303 289 320 271 201 91 29 339 339 338 343 351 347 346 332 322 302 294 287 284 292 302 307 304 299 298
184 243 246 264 275 268 254 247 228 227 232 240 258 264 272 288 286 283 278 273 257 250 266 290 320 318 323 332 347 348 342 340 336 329 313 299 296 303 313 316 310 307 304 299
195 260 272 265 254 261 266 254 239 240 243 252 267 272 270 277 287 288 284 282 267 263 283 303 309 321 321 326 333 334 325 327 333 317 307 313 312 307 304 306 305 308 310 310
191 204 256 263 269 296 265 236 222 229 229 233 248 259 289 291 283 271 269 265 258 249 280 278 284 295 298 298 301 295 306 316 321 309 309 319 312 305 304 303 308 309 311 319
188 196 229 274 300 249 246 203 205 225 239 236 250 267 282 280 286 267 237 239 249 242 269 275 275 286 305 305 295 301 314 309 304 304 308 317 318 310 311 317 316 314 316 321
204 193 224 241 257 266 261 223 186 213 258 235 247 266 283 327 323 290 320 14 238 233 242 239 245 270 298 293 298 334 313 306 305 305 311 314 310 305 309 317 322 321 324 321
214 194 215 233 248 254 246 192 143 134 268 252 231 249 262 323 277 266 342 356 339 333 304 257 316 317 293 286 36 326 303 310 303 308 307 304 298 297 311 316 316 316 317 312
188 204 217 231 245 261 234 171 124 182 251 269 214 225 234 233 235 260 315 321 317 311 294 249 300 298 287 295 127 270 291 288 294 308 310 308 307 305 312 317 311 314 315 316
188 194 208 210 231 250 175 151 191 221 252 280 250 229 228 243 260 278 288 295 305 299 292 215 239 292 312 329 179 272 283 293 308 307 307 308 309 311 320 308 308 311 314 318
205 202 203 207 224 241 180 202 221 210 249 255 252 263 235 249 257 263 264 266 270 262 268 228 220 287 308 317 203 266 293 308 314 313 312 311 320 325 319 305 303 311 315 313
222 193 227 261 264 259 236 239 238 235 241 257 256 257 244 254 259 256 256 260 261 251 258 287 301 290 293 299 283 272 292 306 318 308 309 318 331 329 328 323 315 308 311 312
226 186 220 248 262 276 248 227 238 254 250 252 252 247 241 250 260 252 253 252 248 244 230 201 233 272 283 296 287 297 312 13 351 313 317 330 332 323 329 334 324 310 297 293
213 207 212 237 234 222 241 217 211 229 236 234 248 265 260 247 257 262 260 252 238 239 227 222 247 276 287 297 296 313 340 42 329 325 352 352 346 339 337 332 334 338 315 323